N55BS YMML-YPAD

Flight info

Callsign N55BS
Flight time 1h 6m
Altitude 43000
Route ML H345 AD
Aircraft C700/M-SBDGHM1RWXY/LB2

Departure

Time 2026-05-01 13:56
Airport Melbourne Airport (YMML)

Arrival

Time 2026-05-01 15:03
Airport Adelaide International Airport (YPAD)
Time Latitude Longitude Altitude Speed Heading
2026-05-01 13:36 -37.68606 144.85304 333 ft 0 kts 82°
2026-05-01 13:53 -37.68600 144.85326 332 ft 7 kts 54°
2026-05-01 13:53 -37.68486 144.85263 334 ft 11 kts 307°
2026-05-01 13:53 -37.68435 144.85178 339 ft 13 kts 301°
2026-05-01 13:54 -37.68418 144.85048 335 ft 17 kts 274°
2026-05-01 13:54 -37.68407 144.84884 339 ft 20 kts 274°
2026-05-01 13:54 -37.68395 144.84693 339 ft 23 kts 274°
2026-05-01 13:54 -37.68387 144.84514 339 ft 17 kts 270°
2026-05-01 13:55 -37.68450 144.84382 336 ft 21 kts 211°
2026-05-01 13:55 -37.68546 144.84273 335 ft 19 kts 250°
2026-05-01 13:55 -37.68562 144.84137 334 ft 9 kts 271°
2026-05-01 13:55 -37.68523 144.84089 337 ft 10 kts 351°
2026-05-01 13:56 -37.68236 144.84035 350 ft 88 kts 351°
2026-05-01 13:56 -37.67344 144.83875 583 ft 156 kts 352°
2026-05-01 13:56 -37.66200 144.83652 1710 ft 169 kts 355°
2026-05-01 13:56 -37.64983 144.83420 2589 ft 189 kts 355°
2026-05-01 13:57 -37.63711 144.83199 2734 ft 187 kts 356°
2026-05-01 13:57 -37.62862 144.83042 2645 ft 184 kts 355°
2026-05-01 13:57 -37.61219 144.82728 2434 ft 179 kts 355°
2026-05-01 13:57 -37.59959 144.82494 2631 ft 187 kts 355°
2026-05-01 13:58 -37.58651 144.82080 3949 ft 209 kts 342°
2026-05-01 13:58 -37.57291 144.81120 5273 ft 236 kts 327°
2026-05-01 13:58 -37.56106 144.79631 7041 ft 246 kts 312°
2026-05-01 13:58 -37.55255 144.77715 8738 ft 258 kts 295°
2026-05-01 13:59 -37.54720 144.75440 9989 ft 287 kts 289°
2026-05-01 13:59 -37.54166 144.72987 11444 ft 300 kts 289°
2026-05-01 13:59 -37.53579 144.70422 12988 ft 310 kts 289°
2026-05-01 13:59 -37.52977 144.67793 14409 ft 322 kts 289°
2026-05-01 14:00 -37.52348 144.65060 15859 ft 327 kts 289°
2026-05-01 14:00 -37.51709 144.62283 17332 ft 333 kts 289°
2026-05-01 14:00 -37.51057 144.59461 18738 ft 338 kts 289°
2026-05-01 14:00 -37.50395 144.56591 20004 ft 343 kts 289°
2026-05-01 14:01 -37.49724 144.53687 21180 ft 348 kts 289°
2026-05-01 14:01 -37.49042 144.50738 22327 ft 353 kts 289°
2026-05-01 14:01 -37.48349 144.47752 23479 ft 357 kts 289°
2026-05-01 14:01 -37.47648 144.44729 24481 ft 362 kts 289°
2026-05-01 14:02 -37.46936 144.41666 25417 ft 367 kts 289°
2026-05-01 14:02 -37.46214 144.38558 26331 ft 372 kts 289°
2026-05-01 14:02 -37.45479 144.35405 27206 ft 378 kts 289°
2026-05-01 14:02 -37.44987 144.33298 27772 ft 381 kts 289°
2026-05-01 14:03 -37.43979 144.28982 28924 ft 388 kts 289°
2026-05-01 14:03 -37.43473 144.26813 29492 ft 392 kts 289°
2026-05-01 14:03 -37.42433 144.22371 30570 ft 399 kts 289°
2026-05-01 14:03 -37.41912 144.20152 31067 ft 401 kts 289°
2026-05-01 14:04 -37.41119 144.16774 31819 ft 404 kts 289°
2026-05-01 14:04 -37.40319 144.13369 32531 ft 407 kts 289°
2026-05-01 14:04 -37.39512 144.09944 33217 ft 410 kts 289°
2026-05-01 14:04 -37.38701 144.06502 34054 ft 408 kts 289°
2026-05-01 14:05 -37.37898 144.03095 34860 ft 405 kts 289°
2026-05-01 14:05 -37.37096 143.99705 35540 ft 404 kts 289°
2026-05-01 14:05 -37.36294 143.96322 36196 ft 403 kts 289°
2026-05-01 14:05 -37.35494 143.92950 36807 ft 403 kts 289°
2026-05-01 14:06 -37.34694 143.89578 37408 ft 402 kts 289°
2026-05-01 14:06 -37.33894 143.86214 38004 ft 401 kts 289°
2026-05-01 14:06 -37.33104 143.82900 38540 ft 400 kts 289°
2026-05-01 14:06 -37.32306 143.79552 39011 ft 400 kts 289°
2026-05-01 14:07 -37.31508 143.76212 39416 ft 399 kts 289°
2026-05-01 14:07 -37.30710 143.72875 39793 ft 399 kts 289°
2026-05-01 14:07 -37.29911 143.69540 40156 ft 399 kts 289°
2026-05-01 14:08 -37.28313 143.62878 40858 ft 398 kts 289°
2026-05-01 14:08 -37.27513 143.59553 41191 ft 398 kts 289°
2026-05-01 14:08 -37.26714 143.56230 41525 ft 398 kts 289°
2026-05-01 14:08 -37.25913 143.52912 41848 ft 397 kts 289°
2026-05-01 14:09 -37.25111 143.49592 42156 ft 397 kts 289°
2026-05-01 14:09 -37.24310 143.46279 42460 ft 397 kts 290°
2026-05-01 14:09 -37.23508 143.42964 42760 ft 397 kts 290°
2026-05-01 14:09 -37.22706 143.39654 43051 ft 397 kts 290°
2026-05-01 14:10 -37.21899 143.36335 43148 ft 401 kts 290°
2026-05-01 14:10 -37.20242 143.29528 43149 ft 414 kts 290°
2026-05-01 14:11 -37.18286 143.22667 43155 ft 423 kts 293°
2026-05-01 14:11 -37.16175 143.15677 43158 ft 434 kts 293°
2026-05-01 14:11 -37.15090 143.12126 43150 ft 439 kts 293°
2026-05-01 14:12 -37.12878 143.04923 43147 ft 444 kts 293°
2026-05-01 14:12 -37.10695 142.97787 43142 ft 439 kts 293°
2026-05-01 14:13 -37.08505 142.90677 43140 ft 437 kts 293°
2026-05-01 14:13 -37.06308 142.83544 43136 ft 440 kts 294°
2026-05-01 14:14 -37.04088 142.76363 43135 ft 443 kts 294°
2026-05-01 14:14 -37.01868 142.69196 43134 ft 440 kts 294°
2026-05-01 14:15 -36.99660 142.62088 43133 ft 437 kts 294°
2026-05-01 14:15 -36.97470 142.55053 43129 ft 438 kts 294°
2026-05-01 14:16 -36.95249 142.47943 43129 ft 440 kts 294°
2026-05-01 14:16 -36.93014 142.40799 43127 ft 441 kts 294°
2026-05-01 14:17 -36.90781 142.33677 43122 ft 439 kts 294°
2026-05-01 14:17 -36.88556 142.26606 43119 ft 436 kts 294°
2026-05-01 14:18 -36.86332 142.19553 43113 ft 438 kts 294°
2026-05-01 14:18 -36.84469 142.13655 43107 ft 440 kts 294°
2026-05-01 14:19 -36.81833 142.05333 43099 ft 441 kts 294°
2026-05-01 14:19 -36.79584 141.98251 43099 ft 438 kts 294°
2026-05-01 14:20 -36.76236 141.87744 43090 ft 437 kts 294°
2026-05-01 14:21 -36.73981 141.80688 43090 ft 439 kts 294°
2026-05-01 14:21 -36.71711 141.73601 43092 ft 440 kts 294°
2026-05-01 14:22 -36.68314 141.63025 43081 ft 436 kts 294°
2026-05-01 14:22 -36.66056 141.56022 43081 ft 436 kts 294°
2026-05-01 14:23 -36.63791 141.49009 43078 ft 437 kts 294°
2026-05-01 14:23 -36.61518 141.41991 43069 ft 438 kts 295°
2026-05-01 14:24 -36.59237 141.34964 43074 ft 438 kts 295°
2026-05-01 14:24 -36.56950 141.27933 43067 ft 438 kts 295°
2026-05-01 14:25 -36.54663 141.20923 43065 ft 437 kts 295°
2026-05-01 14:25 -36.52394 141.13983 43058 ft 436 kts 295°
2026-05-01 14:26 -36.48967 141.03533 43052 ft 435 kts 295°
2026-05-01 14:27 -36.46683 140.96586 43051 ft 434 kts 295°
2026-05-01 14:27 -36.44397 140.89653 43045 ft 433 kts 295°
2026-05-01 14:28 -36.40967 140.79277 43042 ft 433 kts 295°
2026-05-01 14:28 -36.38218 140.72634 43037 ft 433 kts 305°
2026-05-01 14:29 -36.34543 140.66710 43035 ft 435 kts 309°
2026-05-01 14:30 -36.27109 140.54963 43027 ft 430 kts 309°
2026-05-01 14:31 -36.21598 140.46285 43023 ft 429 kts 309°
2026-05-01 14:31 -36.19793 140.43450 42931 ft 409 kts 309°
2026-05-01 14:31 -36.18043 140.40703 42078 ft 405 kts 309°
2026-05-01 14:31 -36.16295 140.37963 41096 ft 405 kts 309°
2026-05-01 14:32 -36.14548 140.35226 40156 ft 404 kts 309°
2026-05-01 14:32 -36.12807 140.32500 39215 ft 403 kts 309°
2026-05-01 14:32 -36.11071 140.29783 38170 ft 402 kts 309°
2026-05-01 14:32 -36.09341 140.27055 36815 ft 404 kts 308°
2026-05-01 14:33 -36.07813 140.24111 35361 ft 411 kts 302°
2026-05-01 14:33 -36.06550 140.20897 33875 ft 419 kts 297°
2026-05-01 14:33 -36.05378 140.17584 32172 ft 423 kts 297°
2026-05-01 14:33 -36.04168 140.14242 30458 ft 427 kts 298°
2026-05-01 14:34 -36.02949 140.10885 28713 ft 429 kts 297°
2026-05-01 14:34 -36.01763 140.07573 27570 ft 415 kts 297°
2026-05-01 14:34 -36.00601 140.04338 26235 ft 408 kts 298°
2026-05-01 14:34 -35.99466 140.01208 25009 ft 401 kts 298°
2026-05-01 14:35 -35.98335 139.98091 23825 ft 394 kts 298°
2026-05-01 14:35 -35.97227 139.95022 22500 ft 388 kts 298°
2026-05-01 14:35 -35.96136 139.92010 21219 ft 382 kts 298°
2026-05-01 14:35 -35.95060 139.89043 19998 ft 376 kts 298°
2026-05-01 14:36 -35.93999 139.86122 18825 ft 370 kts 298°
2026-05-01 14:36 -35.92953 139.83244 17611 ft 366 kts 298°
2026-05-01 14:36 -35.91923 139.80399 16400 ft 360 kts 298°
2026-05-01 14:36 -35.90910 139.77604 15250 ft 354 kts 298°
2026-05-01 14:37 -35.89899 139.74855 14144 ft 349 kts 298°
2026-05-01 14:37 -35.88904 139.72136 12996 ft 345 kts 297°
2026-05-01 14:37 -35.87933 139.69468 11907 ft 338 kts 297°
2026-05-01 14:37 -35.86976 139.66841 10848 ft 333 kts 297°
2026-05-01 14:38 -35.86039 139.64282 10265 ft 317 kts 297°
2026-05-01 14:38 -35.85175 139.61908 10133 ft 290 kts 298°
2026-05-01 14:38 -35.84383 139.59739 9958 ft 269 kts 298°
2026-05-01 14:38 -35.83609 139.57645 9282 ft 269 kts 298°
2026-05-01 14:39 -35.82840 139.55554 8664 ft 267 kts 298°
2026-05-01 14:39 -35.82084 139.53509 8054 ft 265 kts 299°
2026-05-01 14:39 -35.81327 139.51446 7463 ft 264 kts 299°
2026-05-01 14:39 -35.80579 139.49391 6879 ft 262 kts 299°
2026-05-01 14:40 -35.79831 139.47350 6306 ft 261 kts 300°
2026-05-01 14:40 -35.79084 139.45324 5749 ft 259 kts 300°
2026-05-01 14:40 -35.78347 139.43319 5208 ft 256 kts 301°
2026-05-01 14:40 -35.77615 139.41334 4671 ft 253 kts 301°
2026-05-01 14:41 -35.76892 139.39360 4122 ft 252 kts 301°
2026-05-01 14:41 -35.76173 139.37396 3604 ft 251 kts 302°
2026-05-01 14:41 -35.75448 139.35452 3124 ft 250 kts 303°
2026-05-01 14:41 -35.74746 139.33554 3040 ft 239 kts 303°
2026-05-01 14:42 -35.74038 139.31668 3041 ft 248 kts 303°
2026-05-01 14:42 -35.73321 139.29716 3040 ft 251 kts 302°
2026-05-01 14:42 -35.72608 139.27762 3039 ft 250 kts 303°
2026-05-01 14:42 -35.71881 139.25824 3042 ft 249 kts 303°
2026-05-01 14:43 -35.71164 139.23879 3043 ft 249 kts 303°
2026-05-01 14:43 -35.70446 139.21935 3042 ft 249 kts 303°
2026-05-01 14:43 -35.69725 139.19996 3037 ft 249 kts 303°
2026-05-01 14:43 -35.69007 139.18054 3036 ft 249 kts 303°
2026-05-01 14:44 -35.68289 139.16118 3036 ft 248 kts 303°
2026-05-01 14:44 -35.66854 139.12260 3034 ft 248 kts 303°
2026-05-01 14:44 -35.66145 139.10354 3040 ft 248 kts 303°
2026-05-01 14:45 -35.65422 139.08430 3034 ft 247 kts 304°
2026-05-01 14:45 -35.63361 139.05226 3021 ft 237 kts 322°
2026-05-01 14:45 -35.62314 139.03918 3027 ft 237 kts 320°
2026-05-01 14:46 -35.61174 139.02458 3026 ft 236 kts 320°
2026-05-01 14:46 -35.58881 138.99568 3025 ft 238 kts 320°
2026-05-01 14:46 -35.57723 138.98106 3029 ft 239 kts 320°
2026-05-01 14:47 -35.56562 138.96639 3031 ft 239 kts 320°
2026-05-01 14:47 -35.55395 138.95170 3028 ft 241 kts 320°
2026-05-01 14:47 -35.54228 138.93699 3029 ft 240 kts 320°
2026-05-01 14:48 -35.51922 138.90795 3032 ft 237 kts 321°
2026-05-01 14:48 -35.50770 138.89345 3028 ft 236 kts 320°
2026-05-01 14:48 -35.48472 138.86458 3021 ft 237 kts 320°
2026-05-01 14:49 -35.46169 138.83561 3022 ft 237 kts 320°
2026-05-01 14:49 -35.43848 138.80648 3022 ft 238 kts 320°
2026-05-01 14:50 -35.42324 138.78735 3025 ft 237 kts 320°
2026-05-01 14:50 -35.39240 138.74870 3021 ft 237 kts 320°
2026-05-01 14:51 -35.38089 138.73433 3016 ft 236 kts 320°
2026-05-01 14:51 -35.35797 138.70558 3014 ft 236 kts 321°
2026-05-01 14:52 -35.33490 138.67677 3007 ft 235 kts 320°
2026-05-01 14:52 -35.32344 138.66239 3015 ft 238 kts 321°
2026-05-01 14:52 -35.29995 138.63313 3017 ft 242 kts 320°
2026-05-01 14:53 -35.29216 138.62339 3007 ft 241 kts 320°
2026-05-01 14:53 -35.28042 138.60874 3009 ft 241 kts 320°
2026-05-01 14:53 -35.26875 138.59418 3014 ft 238 kts 320°
2026-05-01 14:53 -35.25717 138.57973 3005 ft 235 kts 320°
2026-05-01 14:54 -35.24577 138.56547 3006 ft 234 kts 320°
2026-05-01 14:54 -35.23070 138.54677 3003 ft 227 kts 321°
2026-05-01 14:54 -35.22341 138.53767 2993 ft 216 kts 321°
2026-05-01 14:54 -35.20969 138.52056 2992 ft 214 kts 322°
2026-05-01 14:55 -35.20254 138.51181 2999 ft 216 kts 321°
2026-05-01 14:55 -35.19195 138.49862 3004 ft 219 kts 321°
2026-05-01 14:55 -35.18131 138.48530 2997 ft 217 kts 321°
2026-05-01 14:55 -35.17076 138.47219 2991 ft 217 kts 321°
2026-05-01 14:56 -35.16017 138.45948 2989 ft 205 kts 326°
2026-05-01 14:56 -35.14894 138.45033 2954 ft 185 kts 336°
2026-05-01 14:56 -35.13773 138.44410 2900 ft 170 kts 342°
2026-05-01 14:56 -35.12717 138.43859 2844 ft 160 kts 341°
2026-05-01 14:57 -35.11705 138.43322 2690 ft 158 kts 343°
2026-05-01 14:57 -35.09691 138.42271 2348 ft 158 kts 342°
2026-05-01 14:57 -35.08661 138.41934 2181 ft 154 kts 354°
2026-05-01 14:58 -35.07593 138.41876 1990 ft 154 kts
2026-05-01 14:58 -35.06551 138.42077 1889 ft 148 kts 11°
2026-05-01 14:58 -35.05582 138.42371 1836 ft 140 kts 14°
2026-05-01 14:58 -35.04677 138.42726 1834 ft 134 kts 17°
2026-05-01 14:59 -35.03831 138.43132 1817 ft 128 kts 17°
2026-05-01 14:59 -35.03019 138.43515 1783 ft 123 kts 21°
2026-05-01 14:59 -35.02305 138.43982 1683 ft 102 kts 22°
2026-05-01 14:59 -35.01718 138.44320 1599 ft 98 kts 23°
2026-05-01 15:00 -35.00516 138.45362 1375 ft 109 kts 26°
2026-05-01 15:00 -34.99895 138.45947 1236 ft 114 kts 39°
2026-05-01 15:00 -34.99396 138.46644 1086 ft 104 kts 38°
2026-05-01 15:01 -34.98901 138.47299 949 ft 108 kts 41°
2026-05-01 15:01 -34.98424 138.47970 817 ft 98 kts 46°
2026-05-01 15:01 -34.98048 138.48527 678 ft 92 kts 46°
2026-05-01 15:01 -34.97624 138.49136 574 ft 96 kts 46°
2026-05-01 15:02 -34.97186 138.49773 489 ft 99 kts 46°
2026-05-01 15:02 -34.96895 138.50209 392 ft 99 kts 48°
2026-05-01 15:02 -34.96323 138.51053 191 ft 94 kts 45°
2026-05-01 15:02 -34.95887 138.51671 83 ft 98 kts 46°
2026-05-01 15:03 -34.95487 138.52262 21 ft 77 kts 48°
2026-05-01 15:03 -34.95229 138.52633 20 ft 37 kts 49°
2026-05-01 15:03 -34.95089 138.52832 21 ft 28 kts 50°
2026-05-01 15:03 -34.94987 138.52977 21 ft 16 kts 38°
2026-05-01 15:04 -34.94885 138.52986 22 ft 15 kts 16°
2026-05-01 15:04 -34.94787 138.53032 22 ft 15 kts 20°
2026-05-01 15:04 -34.94686 138.53077 21 ft 17 kts 20°
2026-05-01 15:04 -34.94567 138.53130 21 ft 19 kts 20°
2026-05-01 15:05 -34.94464 138.53131 21 ft 16 kts 307°
2026-05-01 15:05 -34.94395 138.53004 20 ft 20 kts 304°
2026-05-01 15:05 -34.94277 138.52917 20 ft 19 kts
2026-05-01 15:05 -34.94150 138.52927 20 ft 20 kts 351°
2026-05-01 15:06 -34.94012 138.52949 20 ft 21 kts
2026-05-01 15:06 -34.93905 138.53005 20 ft 13 kts 49°
2026-05-01 15:06 -34.93861 138.53073 20 ft 7 kts 63°
2026-05-01 15:06 -34.93834 138.53137 20 ft 10 kts 71°
2026-05-01 15:07 -34.93846 138.53196 22 ft 5 kts 157°
2026-05-01 15:07 -34.93862 138.53187 20 ft 0 kts 227°
2026-05-01 15:07 -34.93862 138.53188 20 ft 0 kts 227°
2026-05-01 15:08 -34.93878 138.53206 22 ft 0 kts 227°